When you browse on this site, cookies collect data to enhance your experience and personalize the content and advertising you see.
Visit our Privacy Policy to learn more. By continuing to use the site, you agree to this use of cookies and data.
  • In Hungary
  • List of Countries
  • For 7 days
  • Water Temperature
  • Satellite Maps
  • Weather Map
  • News
  • Weather Widgets
  • user-avatar
    Login

    Hourly Weather Iquitos

    Today, 18 November, Sunday

    Time Temperature Precipitation Wind Pressure Humidity
    00:00 +25°C° 0 mm 1 mps 749 mmHg 95%
    01:00 +25°C° 0 mm 1 mps 749 mmHg 95%
    02:00 +25°C° 0.1 mm 1 mps 749 mmHg 96%
    03:00 +25°C° 0.1 mm 1 mps 749 mmHg 96%
    04:00 +25°C° 0.1 mm 1 mps 749 mmHg 97%
    05:00 +25°C° 0.1 mm 1 mps 750 mmHg 95%
    06:00 +26°C° 0.1 mm 1 mps 750 mmHg 93%
    07:00 +26°C° 0.1 mm 1 mps 751 mmHg 91%
    08:00 +27°C° 0.6 mm 1 mps 751 mmHg 89%
    09:00 +28°C° 0.6 mm 1 mps 751 mmHg 87%
    10:00 +29°C° 0.6 mm 1 mps 751 mmHg 86%
    11:00 +30°C° 0.7 mm 1 mps 750 mmHg 80%
    12:00 +31°C° 0.7 mm 1 mps 749 mmHg 74%
    13:00 +32°C° 0.7 mm 1 mps 749 mmHg 68%
    14:00 +32°C° 0.4 mm 1 mps 748 mmHg 69%
    15:00 +32°C° 0.4 mm 1 mps 747 mmHg 70%
    16:00 +32°C° 0.4 mm 1 mps 747 mmHg 70%
    17:00 +28°C° 0 mm 0 mps 747 mmHg 75%
    18:00 +27°C° 0 mm 0 mps 748 mmHg 80%
    19:00 +26°C° 0 mm 0 mps 748 mmHg 86%
    20:00 +25°C° 0 mm 0 mps 749 mmHg 86%
    21:00 +25°C° 0 mm 0 mps 749 mmHg 87%
    22:00 +25°C° 0 mm 0 mps 750 mmHg 88%
    23:00 +24°C° 0 mm 0 mps 749 mmHg 89%

    Tomorrow, 19 November, Monday

    Time Temperature Precipitation Wind Pressure Humidity
    00:00 +24°C° 0 mm 0 mps 749 mmHg 90%
    01:00 +24°C° 0 mm 0 mps 749 mmHg 92%
    02:00 +24°C° 0 mm 0 mps 749 mmHg 93%
    03:00 +23°C° 0 mm 0 mps 749 mmHg 94%
    04:00 +23°C° 0 mm 0 mps 749 mmHg 95%
    05:00 +24°C° 0 mm 0 mps 749 mmHg 91%
    06:00 +25°C° 0 mm 0 mps 750 mmHg 88%
    07:00 +25°C° 0 mm 0 mps 750 mmHg 84%
    08:00 +29°C° 0 mm 1 mps 751 mmHg 74%
    09:00 +32°C° 0 mm 1 mps 751 mmHg 65%
    10:00 +35°C° 0 mm 2 mps 751 mmHg 55%
    11:00 +36°C° 0 mm 2 mps 750 mmHg 51%
    12:00 +36°C° 0 mm 1 mps 749 mmHg 47%
    13:00 +37°C° 0 mm 1 mps 748 mmHg 43%
    14:00 +36°C° 0 mm 1 mps 747 mmHg 45%
    15:00 +36°C° 0 mm 1 mps 747 mmHg 47%
    16:00 +35°C° 0 mm 1 mps 746 mmHg 49%
    17:00 +33°C° 0 mm 1 mps 747 mmHg 59%
    18:00 +31°C° 0 mm 1 mps 748 mmHg 68%
    19:00 +29°C° 0 mm 1 mps 748 mmHg 77%
    20:00 +26°C° 0.4 mm 0 mps 749 mmHg 82%
    21:00 +25°C° 0.4 mm 0 mps 750 mmHg 87%
    22:00 +24°C° 0.4 mm 0 mps 750 mmHg 91%
    23:00 +24°C° 0.7 mm 0 mps 750 mmHg 93%

    Day after tomorrow, 20 November, Tuesday

    Time Temperature Precipitation Wind Pressure Humidity
    00:00 +24°C° 0.7 mm 0 mps 749 mmHg 94%
    01:00 +23°C° 0.7 mm 0 mps 749 mmHg 96%
    02:00 +23°C° 1.2 mm 0 mps 749 mmHg 97%
    03:00 +23°C° 1.2 mm 0 mps 749 mmHg 98%
    04:00 +23°C° 1.2 mm 0 mps 749 mmHg 99%
    05:00 +23°C° 1 mm 0 mps 749 mmHg 98%
    06:00 +24°C° 1 mm 0 mps 750 mmHg 97%
    07:00 +24°C° 1 mm 0 mps 751 mmHg 97%
    08:00 +26°C° 1.1 mm 0 mps 751 mmHg 92%
    09:00 +27°C° 1.1 mm 0 mps 751 mmHg 87%
    10:00 +31°C° 1.1 mm 1 mps 751 mmHg 82%
    11:00 +31°C° 1 mm 1 mps 750 mmHg 81%
    12:00 +32°C° 1 mm 1 mps 750 mmHg 80%
    13:00 +32°C° 1 mm 1 mps 749 mmHg 79%
    14:00 +32°C° 1.4 mm 1 mps 748 mmHg 82%
    15:00 +31°C° 1.4 mm 1 mps 748 mmHg 85%
    16:00 +29°C° 1.4 mm 0 mps 747 mmHg 87%
    17:00 +27°C° 1.8 mm 0 mps 748 mmHg 90%
    18:00 +26°C° 1.8 mm 0 mps 749 mmHg 93%
    19:00 +25°C° 1.8 mm 0 mps 749 mmHg 96%
    20:00 +25°C° 2.3 mm 0 mps 750 mmHg 96%
    21:00 +24°C° 2.3 mm 0 mps 751 mmHg 97%
    22:00 +24°C° 2.3 mm 0 mps 751 mmHg 97%
    23:00 +24°C° 0.5 mm 0 mps 751 mmHg 97%

    21 November, Wednesday

    Time Temperature Precipitation Wind Pressure Humidity
    00:00 +24°C° 0.5 mm 0 mps 750 mmHg 98%
    01:00 +24°C° 0.5 mm 0 mps 750 mmHg 99%
    02:00 +23°C° 0.4 mm 0 mps 750 mmHg 99%
    03:00 +23°C° 0.4 mm 0 mps 750 mmHg 99%
    04:00 +23°C° 0.4 mm 0 mps 749 mmHg 99%
    05:00 +23°C° 0.4 mm 0 mps 750 mmHg 99%
    06:00 +23°C° 0.4 mm 0 mps 751 mmHg 98%
    07:00 +24°C° 0.4 mm 0 mps 751 mmHg 98%
    08:00 +24°C° 0.7 mm 0 mps 752 mmHg 97%
    09:00 +24°C° 0.7 mm 0 mps 752 mmHg 97%
    10:00 +27°C° 0.7 mm 1 mps 752 mmHg 96%
    11:00 +27°C° 0.9 mm 1 mps 751 mmHg 94%
    12:00 +27°C° 0.9 mm 1 mps 751 mmHg 93%
    13:00 +28°C° 0.9 mm 1 mps 750 mmHg 91%
    14:00 +28°C° 0.1 mm 1 mps 749 mmHg 85%
    15:00 +29°C° 0.1 mm 1 mps 749 mmHg 80%
    16:00 +30°C° 0.1 mm 1 mps 748 mmHg 74%
    17:00 +29°C° 0 mm 1 mps 748 mmHg 80%
    18:00 +25°C° 0 mm 0 mps 749 mmHg 85%
    19:00 +24°C° 0 mm 0 mps 749 mmHg 91%
    20:00 +24°C° 0 mm 0 mps 749 mmHg 92%
    21:00 +24°C° 0 mm 0 mps 750 mmHg 92%
    22:00 +23°C° 0 mm 0 mps 750 mmHg 92%
    23:00 +23°C° 0 mm 0 mps 750 mmHg 92%

    22 November, Thursday

    Time Temperature Precipitation Wind Pressure Humidity
    00:00 +23°C° 0 mm 0 mps 749 mmHg 92%
    01:00 +23°C° 0 mm 0 mps 749 mmHg 92%
    02:00 +23°C° 0 mm 0 mps 749 mmHg 93%
    03:00 +22°C° 0 mm 0 mps 749 mmHg 94%
    04:00 +22°C° 0 mm 0 mps 749 mmHg 95%
    05:00 +23°C° 0 mm 0 mps 749 mmHg 92%
    06:00 +24°C° 0 mm 0 mps 750 mmHg 89%
    07:00 +24°C° 0 mm 0 mps 750 mmHg 86%
    08:00 +27°C° 0 mm 0 mps 750 mmHg 78%
    09:00 +31°C° 0 mm 1 mps 751 mmHg 70%
    10:00 +33°C° 0 mm 1 mps 751 mmHg 61%
    11:00 +33°C° 0 mm 1 mps 750 mmHg 58%
    12:00 +34°C° 0 mm 1 mps 749 mmHg 54%
    13:00 +35°C° 0 mm 1 mps 748 mmHg 50%
    14:00 +35°C° 0 mm 1 mps 747 mmHg 52%
    15:00 +34°C° 0 mm 1 mps 747 mmHg 55%
    16:00 +34°C° 0 mm 1 mps 746 mmHg 57%
    17:00 +32°C° 0 mm 1 mps 746 mmHg 65%
    18:00 +30°C° 0 mm 1 mps 747 mmHg 72%
    19:00 +28°C° 0 mm 1 mps 748 mmHg 80%
    20:00 +28°C° 0 mm 1 mps 748 mmHg 81%
    21:00 +27°C° 0 mm 1 mps 748 mmHg 83%
    22:00 +27°C° 0 mm 1 mps 749 mmHg 84%
    23:00 +26°C° 0 mm 1 mps 748 mmHg 85%

    23 November, Friday

    Time Temperature Precipitation Wind Pressure Humidity
    00:00 +26°C° 0 mm 1 mps 748 mmHg 86%
    01:00 +26°C° 0 mm 1 mps 747 mmHg 87%
    02:00 +26°C° 0 mm 1 mps 747 mmHg 89%
    03:00 +25°C° 0 mm 1 mps 747 mmHg 90%
    04:00 +25°C° 0 mm 1 mps 747 mmHg 92%
    05:00 +26°C° 0 mm 1 mps 748 mmHg 89%
    06:00 +27°C° 0 mm 1 mps 748 mmHg 86%
    07:00 +28°C° 0 mm 1 mps 749 mmHg 83%
    08:00 +30°C° 0 mm 1 mps 749 mmHg 73%
    09:00 +32°C° 0 mm 1 mps 749 mmHg 63%
    10:00 +35°C° 0 mm 2 mps 749 mmHg 54%
    11:00 +34°C° 1.3 mm 1 mps 748 mmHg 62%
    12:00 +33°C° 1.3 mm 1 mps 747 mmHg 70%
    13:00 +32°C° 1.3 mm 1 mps 746 mmHg 79%
    14:00 +32°C° 1.2 mm 1 mps 746 mmHg 79%
    15:00 +32°C° 1.2 mm 1 mps 745 mmHg 79%
    16:00 +30°C° 1.2 mm 0 mps 745 mmHg 79%
    17:00 +28°C° 0.1 mm 0 mps 745 mmHg 83%
    18:00 +27°C° 0.1 mm 0 mps 746 mmHg 88%
    19:00 +25°C° 0.1 mm 0 mps 747 mmHg 92%
    20:00 +25°C° 0 mm 0 mps 747 mmHg 93%
    21:00 +25°C° 0 mm 0 mps 747 mmHg 93%
    22:00 +26°C° 0 mm 1 mps 748 mmHg 93%
    23:00 +26°C° 0 mm 1 mps 747 mmHg 94%
    Show more